Regional Weather Roundup
Issued by NWS

Home | Current Version | Previous Version | Graphics & Text | Print | Product List | Glossary On
Versions: 1 2 3 4 5 6 7 8 9 10 11 12 13 14 15 16 17 18 19 20 21 22 23 24 25 26 27 28 29 30 31 32 33 34 35 36 37 38 39 40 41 42 43 44 45 46 47 48 49 50
000
ASUS43 KBIS 261702
RWRND

NORTH DAKOTA REGIONAL WEATHER ROUNDUP
NATIONAL WEATHER SERVICE BISMARCK ND
1200 PM CDT WED JUL 26 2017

NOTE: "FAIR" INDICATES FEW OR NO CLOUDS BELOW 12,000 FEET WITH NO
SIGNIFICANT WEATHER AND/OR OBSTRUCTIONS TO VISIBILITY.


NDZ001>003-009>011-017-261800-
NORTHWEST NORTH DAKOTA

CITY           SKY/WX    TMP DP  RH WIND       PRES   REMARKS
WILLISTON      SUNNY     83  50  31 CALM      30.15S
MINOT          SUNNY     79  55  43 N7        30.15S
MINOT AFB      SUNNY     76  55  47 CALM      30.13S
$$

NDZ018>021-031>035-040>046-261800-
SOUTHWEST NORTH DAKOTA

CITY           SKY/WX    TMP DP  RH WIND       PRES   REMARKS
BISMARCK       SUNNY     83  55  38 N8        30.13S
DICKINSON      SUNNY     82  54  37 VRB6      30.14S
GARRISON         N/A     79  53  40 NW8G18    30.14S
HETTINGER ARPT SUNNY     83  49  30 NE3       30.17S
$$

NDZ004>008-012>016-024-026-027-054-261800-
NORTHEAST NORTH DAKOTA

CITY           SKY/WX    TMP DP  RH WIND       PRES   REMARKS
GRAND FORKS    MOSUNNY   78  63  59 N13G21    30.06R
GRND FRKS AFB  SUNNY     77  61  57 N8        30.07R
DEVILS LAKE    MOSUNNY   73  59  61 N14G21    30.12R
$$

NDZ022-023-025-028>030-036>039-047>053-261800-
SOUTHEAST NORTH DAKOTA

CITY           SKY/WX    TMP DP  RH WIND       PRES   REMARKS
FARGO          SUNNY     78  61  55 N12G21    30.06S
JAMESTOWN      SUNNY     80  58  46 NW15      30.10S
$$




USA.gov is the U.S. government's official web portal to all federal, state and local government web resources and services.